Tracking 25620 objects as of 18-May-2022
HD Live streaming from Space Station
objects crossing your sky now

STARLINK-1224

Track STARLINK-1224 now!
10-day predictions
STARLINK-1224 is classified as:


NORAD ID: 45186
Int'l Code: 2020-012J
Perigee: 553.0 km
Apogee: 555.6 km
Inclination: 53.1 °
Period: 95.6 minutes
Semi major axis: 6925 km
RCS: Unknown
Launch date: February 17, 2020
Source: United States (US)
Launch site: AIR FORCE EASTERN TEST RANGE (AFETR)
aabbcc
Your satellite tracking list
Your tracking list is empty




NASA's NSSDC Master Catalog

Two Line Element Set (TLE):
1 45186U 20012J   22138.35317319 -.00000229  00000-0  35146-5 0  9995
2 45186  53.0548 172.5730 0001874  51.8733 308.2424 15.06401300125071
Source of the keplerian elements: AFSPC